TimeCST,TemperatureF,Dew PointF,Humidity,Sea Level PressureIn,VisibilityMPH,Wind Direction,Wind SpeedMPH,Gust SpeedMPH,PrecipitationIn,Events,Conditions,WindDirDegrees,DateUTC
12:56 AM,27.0,25.0,92,30.02,4.0,NNW,4.6,-,N/A,,Clear,340,2012-11-18 06:56:00
1:56 AM,25.0,23.0,92,30.02,5.0,NW,3.5,-,N/A,,Clear,320,2012-11-18 07:56:00
2:56 AM,26.1,24.1,92,30.02,5.0,Calm,Calm,-,N/A,,Clear,0,2012-11-18 08:56:00
3:56 AM,25.0,23.0,92,30.01,5.0,WNW,3.5,-,N/A,,Clear,300,2012-11-18 09:56:00
4:12 AM,24.8,21.2,86,29.96,5.0,Calm,Calm,-,N/A,,Scattered Clouds,0,2012-11-18 10:12:00
4:20 AM,24.8,23.0,93,29.96,4.0,NW,3.5,-,N/A,,Mostly Cloudy,320,2012-11-18 10:20:00
4:48 AM,24.8,21.2,86,29.95,1.8,North,3.5,-,N/A,,Overcast,350,2012-11-18 10:48:00
4:56 AM,24.1,23.0,96,30.00,1.0,NNW,3.5,-,N/A,,Mist,340,2012-11-18 10:56:00
5:52 AM,24.8,23.0,93,29.95,0.2,Calm,Calm,-,N/A,Fog,Light Freezing Fog,0,2012-11-18 11:52:00
5:53 AM,25.0,23.0,92,30.01,0.2,Calm,Calm,-,N/A,Fog,Light Freezing Fog,0,2012-11-18 11:53:00
6:05 AM,24.8,23.0,93,29.94,0.2,Calm,Calm,-,N/A,Fog,Light Freezing Fog,0,2012-11-18 12:05:00
6:29 AM,24.8,23.0,93,29.95,0.5,Calm,Calm,-,N/A,Fog,Light Freezing Fog,0,2012-11-18 12:29:00
6:36 AM,24.8,23.0,93,29.94,0.2,Calm,Calm,-,N/A,Fog,Light Freezing Fog,0,2012-11-18 12:36:00
6:56 AM,24.1,23.0,96,30.00,0.2,Calm,Calm,-,N/A,Fog,Light Freezing Fog,0,2012-11-18 12:56:00
7:56 AM,25.0,21.9,88,29.99,0.2,Calm,Calm,-,N/A,Fog,Light Freezing Fog,0,2012-11-18 13:56:00
8:56 AM,27.0,24.1,89,30.00,0.2,Calm,Calm,-,N/A,Fog,Light Freezing Fog,0,2012-11-18 14:56:00
9:56 AM,30.0,26.1,85,29.99,0.2,Calm,Calm,-,N/A,Fog,Light Freezing Fog,0,2012-11-18 15:56:00
10:56 AM,33.1,30.0,89,29.99,0.2,South,4.6,-,N/A,Fog,Fog,180,2012-11-18 16:56:00
11:22 AM,33.8,30.2,87,29.91,0.2,Calm,Calm,-,N/A,Fog,Fog,0,2012-11-18 17:22:00
11:56 AM,33.1,32.0,96,29.96,0.2,South,4.6,-,N/A,Fog,Fog,170,2012-11-18 17:56:00
12:48 PM,35.6,33.8,93,29.89,0.5,SSE,5.8,-,N/A,Fog,Fog,160,2012-11-18 18:48:00
12:56 PM,35.1,34.0,96,29.95,0.8,SSE,5.8,-,N/A,,Mist,160,2012-11-18 18:56:00
1:30 PM,37.4,35.6,93,29.88,1.5,SSE,9.2,-,N/A,,Overcast,150,2012-11-18 19:30:00
1:48 PM,39.2,35.6,87,29.88,3.0,SE,11.5,-,N/A,,Mostly Cloudy,140,2012-11-18 19:48:00
1:56 PM,39.9,36.0,86,29.92,5.0,SE,9.2,-,N/A,,Scattered Clouds,140,2012-11-18 19:56:00
2:56 PM,46.0,37.0,71,29.90,10.0,SE,12.7,-,N/A,,Clear,140,2012-11-18 20:56:00
3:56 PM,44.1,36.0,73,29.91,10.0,SSE,10.4,-,N/A,,Clear,150,2012-11-18 21:56:00
4:56 PM,39.0,35.1,86,29.93,8.0,SSE,5.8,-,N/A,,Partly Cloudy,150,2012-11-18 22:56:00
5:56 PM,39.9,35.1,83,29.91,9.0,ESE,9.2,-,N/A,,Partly Cloudy,120,2012-11-18 23:56:00
6:56 PM,36.0,33.1,89,29.90,8.0,ESE,6.9,-,N/A,,Clear,120,2012-11-19 00:56:00
7:56 PM,43.0,36.0,76,29.89,10.0,SSE,9.2,18.4,N/A,,Scattered Clouds,160,2012-11-19 01:56:00
8:56 PM,39.0,35.1,86,29.91,10.0,Calm,Calm,-,N/A,,Mostly Cloudy,0,2012-11-19 02:56:00
9:56 PM,36.0,33.1,89,29.90,8.0,Calm,Calm,-,N/A,,Clear,0,2012-11-19 03:56:00
10:56 PM,35.1,32.0,89,29.90,7.0,SSE,3.5,-,N/A,,Clear,160,2012-11-19 04:56:00